Location: Sankt+Gallen
(47.4262°N, 9.3755°E)
Time: 09:36:52
(UTC+01:00)

ARIANE 6 FM1 Upper Stage - Pass Details

Date: 15 February 2026
Orbit: 523 x 606 km, 62.0° (Epoch: 14 March)

Event Time Altitude Azimuth Distance (km) Brightness Sun altitude
Rises 18:37:34 0° 321° (NW) 2,663 6.6 -9.3°
Reaches altitude 10° 18:40:00 10° 334° (NNW) 1,769 5.5 -9.7°
Maximum altitude 18:43:27 28° 34° (NE) 1,015 3.6 -10.3°
Enters shadow 18:45:55 16° 85° (E) 1,452 4.1 -10.7°
